This is the latest recevied weather packets stored in our database for station/object WE8M. If no packets are shown the sender has not sent any weather packets the latest 10 day(s).
| Time | Temp. | Humidity | Pressure | Rain* | Wind** | Luminosity | Snow |
|---|---|---|---|---|---|---|---|
| 1777939756 | 21.11° C | 52% | 1006.9 hPa | 0 mm | - | - | - |
| 1777939150 | 21.67° C | 52% | 1007 hPa | 0 mm | - | - | - |
| 1777938848 | 21.67° C | 51% | 1007.1 hPa | 0 mm | - | - | - |
| 1777934604 | 22.78° C | 51% | 1007.3 hPa | 0 mm | - | - | - |
| 1777934300 | 22.78° C | 51% | 1007.2 hPa | 0 mm | - | - | - |
| 1777933996 | 22.78° C | 52% | 1007.4 hPa | 0 mm | - | - | - |
| 1777933088 | 23.33° C | 49% | 1007.8 hPa | 0 mm | - | - | - |
| 1777932481 | 23.33° C | 51% | 1007.9 hPa | 0 mm | - | - | - |
| 1777932178 | 23.33° C | 51% | 1007.8 hPa | 0 mm | - | - | - |
| 1777931875 | 23.89° C | 50% | 1007.8 hPa | 0 mm | - | - | - |
| 1777931571 | 23.89° C | 50% | 1007.8 hPa | 0 mm | - | - | - |
| 1777930661 | 23.33° C | 50% | 1008.3 hPa | 0 mm | - | - | - |
| 1777930357 | 22.78° C | 51% | 1008.3 hPa | 0 mm | - | - | - |
| 1777930054 | 22.78° C | 50% | 1008.2 hPa | 0 mm | - | - | - |
| 1777929751 | 22.78° C | 51% | 1008.2 hPa | 0 mm | - | - | - |
| 1777929449 | 22.78° C | 53% | 1008.1 hPa | 0 mm | - | - | - |
| 1777929144 | 22.78° C | 50% | 1008.2 hPa | 0 mm | - | - | - |
| 1777928842 | 22.78° C | 52% | 1008.3 hPa | 0 mm | - | - | - |
| 1777927934 | 24.44° C | 47% | 1008.3 hPa | 0 mm | - | - | - |
| 1777925518 | 23.89° C | 50% | 1009 hPa | 0 mm | - | - | - |
| 1777925215 | 23.33° C | 49% | 1009.1 hPa | 0 mm | - | - | - |
| 1777923091 | 20.56° C | 60% | 1009.7 hPa | 0 mm | - | - | - |
| 1777922789 | 20.56° C | 60% | 1010 hPa | 0 mm | - | - | - |
| 1777922487 | 20.56° C | 61% | 1010.1 hPa | 0 mm | - | - | - |
| 1777922185 | 20.56° C | 60% | 1010 hPa | 0 mm | - | - | - |
* Rain latest hour (hover to see other rain measurements)
** Current wind speed in m/s (hover to see current wind gust speed)